Temp
-7 -7 -7 -7 -7 -7 -7 -7 -8 -8 -7 -7 -7 -7 -7 -7 -7 -7 -7 -7 -7 -7 -6 -6 -6 -7 -7 -7 -7 -7 -7 -7 -7 -7 -7 -7 -7 -7 -7 -7 -7 -7 -7 -7 -8 -8 -8 -8 -8 -8 -8 -8 -8 -8 -8 -8 -8 -8 -8 -8 -8 -8 -8
-6 -7 -7 -7 -7 -7 -7 -8 -8 -8 -8 -7 -7 -7 -7 -7 -7 -7 -7 -7 -7 -6 -6 -6 -7 -7 -7 -7 -7 -7 -7 -7 -7 -7 -7 -7 -7 -7 -7 -7 -7 -7 -8 -8 -8 -8 -8 -8 -8 -8 -8 -8 -8 -8 -8 -8 -8 -8 -8 -8 -8 -8 -8
-7 -7 -7 -7 -7 -7 -7 -8 -8 -8 -8 -8 -7 -7 -7 -7 -7 -7 -7 -6 -6 -6 -6 -7 -7 -7 -7 -7 -7 -7 -7 -7 -7 -7 -7 -7 -7 -7 -7 -8 -8 -8 -8 -8 -8 -8 -8 -8 -8 -8 -8 -8 -8 -8 -8 -8 -8 -8 -8 -8 -8 -8 -8
-7 -7 -7 -7 -7 -7 -7 -7 -8 -8 -8 -8 -7 -7 -7 -7 -7 -6 -6 -6 -6 -7 -7 -7 -7 -7 -7 -7 -7 -7 -7 -7 -7 -7 -7 -7 -7 -7 -7 -8 -8 -8 -8 -8 -8 -9 -9 -9 -9 -9 -9 -9 -9 -9 -8 -8 -8 -9 -9 -9 -9 -9 -8
-7 -7 -7 -7 -7 -7 -7 -8 -8 -8 -8 -8 -8 -7 -7 -7 -7 -7 -6 -6 -7 -7 -7 -7 -7 -7 -7 -7 -7 -7 -7 -7 -7 -7 -7 -7 -7 -7 -7 -8 -8 -8 -8 -8 -8 -9 -9 -9 -9 -9 -9 -9 -9 -9 -9 -9 -9 -9 -9 -9 -9 -9 -9
-7 -7 -7 -7 -7 -7 -7 -8 -8 -8 -8 -8 -7 -7 -7 -7 -7 -7 -7 -7 -7 -7 -7 -7 -7 -7 -7 -7 -7 -7 -7 -7 -7 -7 -7 -7 -7 -7 -7 -7 -8 -8 -8 -8 -8 -9 -9 -9 -9 -9 -9 -9 -9 -9 -9 -9 -9 -9 -9 -9 -9 -9 -9
-7 -7 -7 -7 -7 -7 -8 -8 -8 -8 -8 -8 -7 -7 -7 -7 -7 -7 -7 -7 -7 -7 -7 -7 -7 -7 -7 -7 -8 -8 -8 -7 -7 -7 -7 -7 -7 -7 -7 -7 -7 -8 -8 -8 -9 -9 -9 -9 -9 -9 -9 -9 -9 -9 -9 -9 -9 -9 -9 -9 -9 -9 -9
-7 -7 -7 -7 -7 -7 -8 -8 -8 -8 -8 -8 -7 -7 -7 -7 -7 -7 -7 -7 -7 -7 -7 -7 -7 -7 -8 -8 -8 -8 -8 -8 -7 -7 -7 -7 -7 -7 -7 -7 -7 -7 -8 -9 -9 -9 -9 -9 -9 -9 -9 -9 -9 -9 -9 -9 -9 -9 -9 -9 -9 -9 -9
-7 -7 -7 -7 -7 -7 -8 -8 -8 -8 -8 -8 -7 -7 -7 -7 -7 -7 -7 -7 -7 -7 -7 -7 -8 -8 -8 -8 -8 -8 -8 -8 -7 -7 -7 -7 -7 -7 -7 -8 -7 -8 -8 -8 -9 -9 -9 -9 -9 -9 -9 -9 -9 -9 -9 -9 -8 -9 -9 -9 -9 -9 -9
-7 -7 -7 -7 -7 -7 -7 -8 -8 -8 -8 -8 -7 -7 -7 -7 -7 -7 -7 -7 -7 -7 -8 -8 -8 -8 -8 -8 -8 -8 -8 -8 -8 -7 -7 -7 -7 -7 -8 -8 -8 -8 -8 -8 -8 -9 -8 -9 -9 -9 -9 -9 -9 -9 -9 -8 -8 -8 -9 -9 -9 -9 -9
-7 -7 -7 -7 -7 -7 -7 -8 -8 -8 -8 -8 -8 -7 -7 -7 -7 -7 -7 -7 -8 -8 -8 -8 -8 -8 -8 -8 -8 -8 -8 -8 -8 -8 -8 -7 -7 -7 -8 -8 -8 -8 -8 -8 -8 -9 -9 -9 -9 -9 -9 -9 -9 -9 -9 -8 -8 -8 -9 -9 -10 -10 -10
-7 -7 -7 -7 -7 -7 -7 -8 -8 -8 -8 -8 -8 -7 -7 -7 -7 -7 -7 -8 -8 -8 -8 -8 -8 -8 -8 -8 -8 -8 -8 -8 -8 -8 -8 -8 -8 -7 -7 -8 -8 -8 -8 -9 -9 -9 -9 -9 -9 -8 -9 -9 -9 -9 -8 -9 -9 -9 -9 -10 -10 -10 -10
-7 -7 -7 -7 -7 -7 -7 -8 -8 -7 -7 -8 -8 -7 -7 -7 -7 -8 -8 -8 -8 -8 -8 -8 -8 -8 -8 -8 -8 -8 -8 -8 -8 -8 -8 -8 -8 -8 -8 -8 -8 -8 -8 -9 -9 -9 -9 -9 -9 -8 -8 -9 -9 -8 -8 -9 -9 -10 -10 -10 -10 -10 -10
-7 -7 -7 -7 -7 -7 -7 -8 -8 -7 -7 -7 -7 -8 -8 -8 -8 -8 -8 -8 -8 -8 -8 -8 -8 -8 -8 -8 -8 -8 -8 -8 -8 -8 -8 -8 -8 -8 -8 -8 -8 -8 -9 -9 -10 -10 -9 -9 -9 -8 -8 -9 -9 -8 -8 -9 -9 -10 -10 -10 -10 -11 -11
-7 -7 -7 -7 -7 -7 -7 -7 -7 -7 -7 -7 -7 -8 -8 -8 -8 -8 -8 -8 -8 -8 -8 -8 -8 -8 -8 -8 -8 -8 -8 -8 -8 -8 -8 -8 -8 -8 -8 -8 -8 -8 -8 -9 -9 -10 -9 -9 -9 -9 -8 -9 -8 -8 -8 -9 -9 -10 -10 -10 -10 -11 -11
-7 -7 -7 -7 -7 -7 -8 -8 -8 -7 -7 -7 -8 -8 -8 -8 -8 -8 -8 -8 -8 -8 -8 -8 -8 -8 -8 -8 -8 -8 -8 -8 -8 -8 -8 -8 -8 -8 -8 -8 -8 -9 -9 -9 -9 -9 -9 -9 -9 -9 -9 -9 -9 -8 -9 -9 -9 -9 -10 -10 -10 -11 -11
-7 -7 -7 -7 -7 -8 -8 -8 -8 -7 -7 -8 -8 -8 -8 -8 -8 -8 -8 -8 -8 -8 -8 -8 -8 -8 -8 -8 -8 -8 -8 -8 -8 -8 -8 -8 -8 -8 -8 -8 -8 -8 -9 -9 -9 -9 -10 -9 -9 -9 -9 -9 -9 -9 -9 -9 -9 -9 -10 -10 -10 -11 -11
-7 -7 -7 -7 -8 -8 -8 -8 -8 -8 -8 -8 -8 -8 -8 -8 -7 -7 -7 -7 -7 -7 -8 -8 -8 -8 -8 -8 -8 -8 -8 -8 -8 -8 -8 -8 -8 -8 -8 -8 -7 -8 -9 -9 -9 -10 -10 -10 -9 -9 -9 -9 -9 -9 -9 -9 -10 -10 -10 -10 -10 -11 -11
-7 -8 -7 -7 -8 -8 -8 -8 -8 -8 -8 -8 -8 -8 -8 -8 -8 -8 -7 -7 -7 -8 -8 -8 -8 -8 -8 -8 -8 -8 -8 -8 -8 -8 -8 -8 -8 -8 -8 -8 -8 -8 -8 -9 -9 -9 -9 -9 -9 -9 -9 -9 -10 -10 -10 -10 -10 -10 -10 -10 -10 -11 -11
-8 -7 -7 -8 -8 -8 -8 -8 -8 -8 -8 -8 -8 -8 -8 -8 -8 -8 -8 -8 -8 -8 -8 -8 -8 -8 -8 -8 -8 -8 -8 -8 -8 -8 -8 -8 -8 -8 -8 -8 -8 -8 -8 -8 -9 -9 -9 -9 -9 -9 -9 -10 -10 -10 -10 -10 -10 -10 -10 -10 -10 -10 -11
-7 -7 -8 -8 -8 -8 -8 -8 -8 -8 -8 -8 -8 -8 -8 -8 -8 -8 -8 -8 -8 -8 -8 -8 -8 -8 -8 -8 -8 -8 -8 -8 -8 -8 -8 -8 -8 -8 -8 -9 -9 -8 -8 -9 -9 -9 -9 -9 -9 -9 -9 -10 -10 -10 -10 -10 -10 -10 -10 -10 -10 -10 -11
-7 -7 -8 -8 -8 -8 -8 -8 -8 -8 -8 -8 -8 -8 -8 -8 -8 -8 -8 -8 -8 -8 -8 -8 -8 -8 -8 -8 -8 -8 -8 -8 -8 -8 -9 -8 -8 -8 -8 -9 -9 -9 -9 -9 -9 -9 -9 -9 -9 -9 -9 -10 -10 -11 -11 -11 -11 -10 -11 -11 -10 -10 -11
-8 -8 -8 -8 -8 -8 -8 -8 -8 -8 -8 -8 -8 -8 -8 -8 -8 -8 -8 -8 -8 -8 -9 -8 -8 -8 -8 -8 -8 -8 -8 -8 -9 -9 -9 -8 -8 -8 -8 -8 -9 -9 -9 -9 -9 -9 -9 -9 -9 -9 -9 -10 -10 -11 -11 -11 -11 -10 -10 -11 -11 -11 -11
-8 -8 -8 -8 -8 -8 -8 -8 -8 -8 -8 -8 -8 -8 -8 -8 -8 -8 -8 -8 -9 -9 -9 -9 -9 -9 -8 -8 -8 -8 -8 -9 -9 -9 -9 -9 -9 -8 -8 -8 -9 -9 -9 -9 -9 -9 -9 -9 -9 -10 -10 -10 -10 -10 -11 -11 -11 -10 -10 -11 -11 -11 -11
-8 -8 -8 -8 -8 -8 -8 -8 -8 -8 -8 -8 -8 -8 -8 -8 -8 -8 -9 -9 -9 -9 -9 -9 -9 -9 -9 -9 -9 -8 -9 -9 -9 -9 -9 -9 -9 -9 -8 -8 -9 -9 -9 -9 -9 -9 -9 -10 -10 -10 -10 -10 -10 -10 -10 -10 -11 -11 -11 -11 -11 -12 -12
-8 -8 -8 -8 -8 -8 -8 -8 -8 -8 -8 -8 -8 -8 -8 -8 -9 -9 -9 -9 -9 -9 -9 -9 -9 -9 -9 -9 -9 -9 -9 -9 -9 -9 -9 -9 -9 -9 -9 -9 -9 -9 -9 -9 -9 -9 -9 -10 -10 -10 -10 -10 -10 -10 -10 -10 -10 -11 -11 -12 -12 -12 -12
-8 -8 -8 -8 -8 -8 -8 -8 -8 -8 -8 -8 -8 -9 -9 -9 -9 -9 -9 -9 -9 -9 -9 -9 -9 -9 -9 -9 -9 -9 -9 -9 -9 -9 -9 -9 -9 -9 -9 -9 -9 -9 -9 -9 -9 -9 -9 -10 -10 -10 -10 -10 -10 -10 -10 -11 -11 -11 -12 -12 -12 -12 -12
-8 -8 -8 -8 -8 -8 -8 -8 -8 -8 -8 -9 -9 -9 -9 -9 -9 -9 -9 -9 -9 -9 -9 -9 -9 -9 -9 -9 -9 -9 -9 -9 -10 -9 -9 -9 -9 -9 -9 -9 -9 -9 -9 -9 -9 -9 -10 -10 -10 -10 -10 -10 -10 -10 -11 -11 -12 -12 -12 -12 -12 -12 -12
-8 -8 -8 -8 -8 -8 -9 -9 -9 -9 -9 -9 -9 -9 -9 -9 -9 -9 -9 -9 -9 -9 -9 -9 -9 -9 -9 -9 -10 -10 -10 -10 -10 -9 -9 -9 -9 -9 -9 -9 -9 -9 -9 -9 -9 -9 -9 -10 -10 -10 -10 -10 -11 -10 -11 -11 -12 -12 -12 -12 -12 -12 -12
-8 -8 -8 -8 -9 -9 -9 -9 -9 -9 -9 -9 -9 -9 -9 -9 -9 -10 -10 -9 -9 -9 -9 -9 -9 -9 -9 -9 -9 -10 -10 -10 -10 -9 -9 -9 -9 -9 -9 -9 -9 -9 -9 -9 -9 -9 -10 -10 -10 -10 -10 -11 -11 -11 -11 -11 -12 -12 -12 -12 -12 -13 -13
-9 -9 -9 -9 -9 -9 -9 -9 -9 -9 -9 -9 -9 -9 -9 -9 -10 -10 -10 -10 -10 -9 -9 -9 -9 -9 -9 -9 -9 -10 -10 -10 -9 -9 -9 -9 -9 -9 -9 -9 -9 -9 -9 -9 -10 -10 -10 -10 -10 -11 -11 -11 -11 -11 -12 -12 -12 -12 -12 -12 -12 -13 -13
-9 -9 -9 -9 -9 -9 -9 -9 -9 -9 -9 -9 -9 -9 -9 -10 -10 -10 -10 -10 -10 -10 -10 -9 -9 -9 -9 -9 -9 -10 -10 -10 -9 -9 -9 -9 -9 -9 -9 -9 -9 -9 -10 -10 -10 -10 -10 -10 -10 -11 -11 -11 -12 -12 -12 -12 -12 -12 -12 -12 -12 -13 -13
-9 -9 -9 -9 -9 -9 -9 -9 -9 -9 -9 -10 -10 -10 -10 -10 -10 -10 -10 -10 -10 -9 -9 -9 -9 -9 -9 -9 -10 -10 -10 -10 -9 -9 -9 -9 -9 -10 -10 -10 -10 -10 -10 -10 -10 -10 -10 -10 -11 -11 -11 -12 -12 -12 -12 -12 -12 -12 -12 -13 -13 -13 -13
-9 -9 -9 -9 -9 -9 -9 -9 -9 -10 -10 -10 -10 -10 -10 -10 -10 -10 -10 -10 -10 -9 -9 -9 -9 -9 -9 -10 -10 -10 -10 -10 -10 -10 -10 -10 -10 -10 -10 -10 -10 -10 -10 -10 -10 -10 -11 -11 -11 -11 -12 -12 -12 -12 -12 -12 -13 -13 -13 -13 -13 -13 -13
-9 -9 -9 -9 -9 -10 -10 -10 -10 -9 -9 -9 -9 -9 -10 -10 -10 -10 -10 -10 -10 -10 -9 -9 -9 -9 -9 -10 -10 -10 -10 -10 -10 -10 -10 -10 -10 -10 -10 -10 -10 -10 -10 -10 -11 -11 -11 -11 -12 -12 -12 -12 -12 -13 -13 -13 -13 -13 -13 -13 -13 -13 -14
-9 -9 -9 -9 -10 -10 -10 -9 -9 -9 -9 -9 -9 -9 -9 -9 -10 -10 -10 -10 -10 -9 -9 -9 -9 -9 -9 -10 -10 -10 -10 -10 -10 -10 -10 -10 -10 -10 -10 -10 -10 -10 -11 -11 -11 -11 -11 -12 -12 -12 -13 -13 -13 -13 -13 -13 -13 -13 -13 -13 -13 -14 -14
-9 -9 -9 -9 -9 -9 -9 -9 -9 -9 -9 -9 -9 -9 -9 -9 -9 -10 -10 -10 -9 -9 -9 -9 -9 -9 -10 -10 -10 -10 -10 -10 -10 -10 -10 -10 -10 -10 -10 -10 -10 -10 -11 -11 -11 -11 -12 -12 -12 -13 -13 -13 -13 -13 -13 -13 -13 -13 -13 -13 -14 -14 -14
-10 -10 -10 -9 -9 -9 -9 -9 -9 -9 -9 -9 -9 -9 -9 -9 -9 -9 -9 -9 -9 -9 -9 -9 -9 -9 -10 -10 -10 -10 -10 -10 -10 -10 -10 -10 -10 -10 -10 -10 -10 -11 -11 -11 -11 -12 -12 -12 -13 -13 -13 -13 -13 -14 -14 -13 -13 -13 -13 -14 -14 -15 -15
Height
5903 5903 5904 5905 5906 5906 5906 5906 5905 5905 5905 5905 5905 5905 5906 5906 5906 5906 5906 5906 5906 5907 5907 5907 5907 5907 5907 5907 5907 5908 5907 5907 5907 5906 5905 5905 5906 5905 5904 5903 5902 5901 5900 5899 5899 5898 5897 5896 5896 5895 5894 5893 5892 5891 5890 5889 5888 5887 5886 5885 5883 5882 5881
5902 5902 5902 5903 5903 5904 5904 5904 5904 5903 5903 5903 5903 5904 5904 5903 5903 5904 5904 5904 5904 5904 5904 5905 5905 5905 5905 5905 5906 5906 5906 5905 5905 5904 5904 5904 5904 5903 5902 5900 5899 5899 5898 5897 5896 5895 5894 5893 5893 5892 5891 5890 5889 5888 5887 5886 5885 5884 5883 5882 5881 5879 5878
5901 5900 5901 5901 5901 5902 5902 5902 5902 5902 5901 5901 5901 5901 5901 5901 5901 5901 5901 5901 5901 5901 5902 5902 5902 5902 5903 5903 5904 5904 5904 5903 5903 5902 5902 5901 5901 5899 5898 5897 5896 5896 5896 5895 5894 5893 5892 5891 5890 5889 5888 5887 5886 5885 5884 5883 5881 5880 5879 5878 5877 5876 5875
5899 5899 5899 5899 5899 5899 5900 5900 5900 5900 5900 5899 5899 5899 5899 5899 5899 5899 5899 5899 5898 5899 5899 5899 5900 5900 5901 5902 5902 5902 5902 5901 5901 5900 5900 5899 5897 5896 5894 5893 5893 5893 5893 5892 5891 5890 5889 5888 5887 5887 5885 5884 5883 5882 5881 5880 5878 5877 5876 5875 5874 5873 5872
5897 5897 5897 5897 5897 5897 5897 5898 5898 5898 5898 5897 5897 5897 5897 5897 5897 5897 5896 5896 5896 5896 5897 5897 5898 5899 5899 5900 5900 5900 5900 5899 5898 5898 5897 5895 5894 5893 5892 5890 5889 5889 5888 5888 5887 5886 5885 5884 5882 5882 5881 5880 5878 5877 5876 5876 5875 5873 5872 5871 5870 5869 5868
5895 5895 5895 5895 5896 5896 5896 5896 5896 5896 5896 5895 5895 5895 5895 5895 5895 5894 5894 5894 5894 5894 5895 5896 5896 5896 5897 5898 5898 5897 5897 5897 5896 5895 5894 5892 5892 5891 5889 5887 5886 5885 5884 5884 5883 5882 5881 5879 5878 5877 5876 5874 5873 5872 5872 5871 5870 5869 5868 5867 5866 5864 5863
5893 5894 5894 5894 5894 5894 5894 5894 5894 5894 5894 5893 5893 5893 5893 5893 5893 5892 5892 5892 5892 5892 5893 5893 5894 5895 5895 5896 5896 5895 5895 5894 5893 5892 5891 5889 5888 5887 5886 5884 5882 5881 5880 5880 5879 5877 5877 5875 5874 5872 5871 5869 5868 5867 5866 5866 5865 5864 5863 5862 5861 5860 5859
5891 5892 5892 5892 5892 5892 5892 5892 5892 5892 5892 5891 5891 5891 5891 5891 5890 5890 5890 5890 5890 5890 5891 5891 5892 5893 5894 5894 5893 5893 5892 5892 5891 5890 5888 5886 5884 5883 5882 5881 5878 5877 5876 5875 5874 5872 5871 5870 5869 5867 5866 5864 5862 5861 5861 5861 5861 5860 5859 5858 5857 5855 5854
5889 5889 5890 5890 5890 5890 5889 5890 5890 5890 5890 5889 5889 5889 5889 5889 5889 5888 5888 5888 5888 5889 5889 5890 5891 5891 5891 5891 5890 5890 5890 5889 5888 5887 5885 5883 5881 5879 5878 5877 5876 5874 5872 5871 5869 5868 5866 5865 5864 5862 5861 5859 5857 5856 5857 5857 5856 5855 5854 5854 5852 5851 5850
5886 5887 5887 5888 5887 5887 5887 5887 5888 5888 5887 5887 5887 5887 5887 5887 5887 5886 5886 5886 5886 5886 5887 5888 5888 5889 5888 5888 5887 5887 5887 5886 5885 5884 5882 5880 5878 5875 5874 5873 5872 5871 5869 5868 5866 5865 5863 5862 5860 5858 5857 5855 5852 5852 5853 5853 5852 5851 5850 5849 5848 5847 5846
5884 5884 5885 5885 5885 5885 5885 5885 5886 5886 5885 5885 5885 5885 5885 5884 5884 5884 5884 5883 5884 5884 5884 5885 5885 5885 5885 5885 5884 5884 5884 5883 5882 5880 5878 5876 5874 5872 5870 5869 5869 5868 5867 5866 5864 5862 5860 5858 5856 5854 5853 5851 5849 5848 5849 5849 5848 5847 5845 5844 5844 5843 5843
5881 5881 5882 5882 5883 5883 5883 5883 5883 5883 5883 5883 5883 5882 5882 5882 5881 5881 5881 5881 5881 5881 5882 5882 5883 5883 5882 5882 5881 5881 5880 5879 5878 5876 5875 5873 5870 5868 5866 5865 5865 5864 5863 5863 5861 5858 5857 5855 5853 5850 5848 5847 5846 5845 5844 5844 5843 5842 5841 5840 5840 5840 5839
5878 5878 5879 5879 5880 5880 5880 5880 5880 5881 5881 5881 5880 5880 5879 5879 5879 5878 5878 5878 5879 5879 5880 5880 5880 5880 5879 5879 5878 5877 5876 5875 5873 5872 5870 5868 5866 5864 5861 5860 5861 5860 5859 5857 5856 5854 5853 5852 5850 5847 5845 5843 5842 5841 5840 5839 5839 5838 5837 5837 5836 5835 5834
5874 5875 5876 5876 5877 5878 5878 5878 5878 5879 5879 5879 5878 5877 5877 5876 5876 5876 5876 5876 5877 5877 5877 5877 5877 5877 5876 5875 5875 5874 5872 5871 5869 5867 5865 5862 5861 5860 5858 5855 5855 5855 5853 5851 5849 5848 5847 5848 5846 5844 5842 5840 5839 5838 5836 5835 5834 5834 5833 5832 5831 5830 5829
5871 5872 5873 5873 5874 5875 5875 5875 5875 5876 5876 5876 5876 5875 5875 5874 5874 5874 5874 5874 5875 5875 5875 5875 5875 5874 5873 5873 5872 5871 5869 5867 5865 5863 5860 5857 5855 5854 5852 5850 5850 5849 5847 5845 5844 5842 5841 5843 5843 5840 5838 5836 5835 5834 5833 5832 5831 5829 5828 5828 5826 5825 5825
5868 5869 5870 5871 5871 5872 5873 5872 5872 5873 5874 5874 5873 5872 5872 5872 5872 5872 5872 5872 5873 5873 5873 5873 5872 5872 5871 5870 5869 5868 5866 5864 5862 5859 5856 5853 5851 5848 5845 5845 5846 5844 5842 5840 5840 5838 5838 5839 5838 5836 5833 5832 5831 5831 5830 5829 5826 5825 5824 5823 5822 5822 5821
5864 5866 5867 5868 5868 5869 5869 5869 5869 5870 5871 5871 5870 5870 5870 5870 5870 5870 5870 5871 5871 5871 5871 5870 5869 5869 5868 5867 5866 5864 5863 5861 5859 5856 5853 5850 5848 5844 5840 5839 5840 5840 5839 5835 5834 5835 5834 5834 5833 5831 5829 5827 5827 5827 5827 5825 5822 5821 5821 5820 5818 5818 5818
5861 5862 5864 5865 5865 5866 5866 5866 5866 5867 5867 5867 5867 5867 5867 5867 5867 5868 5868 5868 5868 5868 5868 5867 5866 5865 5864 5863 5862 5861 5860 5858 5855 5853 5850 5847 5844 5840 5836 5832 5832 5834 5834 5829 5828 5830 5829 5828 5828 5826 5824 5823 5823 5823 5822 5821 5819 5817 5817 5816 5815 5815 5814
5858 5859 5860 5861 5862 5862 5862 5862 5863 5863 5863 5864 5864 5864 5864 5864 5864 5864 5865 5865 5864 5864 5864 5863 5862 5861 5860 5859 5858 5857 5855 5853 5851 5849 5847 5844 5840 5837 5834 5830 5827 5827 5827 5824 5823 5825 5825 5824 5823 5821 5820 5819 5819 5819 5818 5816 5815 5814 5814 5813 5812 5811 5810
5855 5856 5857 5858 5858 5858 5859 5859 5859 5859 5859 5860 5860 5860 5860 5860 5860 5860 5860 5861 5860 5860 5859 5859 5858 5857 5856 5855 5854 5852 5850 5848 5847 5845 5843 5840 5837 5834 5831 5829 5826 5824 5824 5822 5821 5821 5821 5820 5819 5817 5816 5815 5815 5815 5814 5813 5811 5811 5810 5809 5808 5806 5805
5851 5853 5854 5854 5854 5854 5855 5855 5855 5855 5855 5855 5855 5856 5856 5856 5856 5856 5856 5856 5856 5855 5855 5854 5853 5852 5851 5850 5848 5847 5845 5843 5842 5840 5838 5835 5833 5830 5827 5825 5824 5822 5821 5820 5819 5818 5816 5815 5814 5813 5812 5810 5810 5810 5810 5809 5807 5807 5806 5804 5802 5800 5799
5848 5849 5849 5850 5850 5850 5851 5851 5851 5851 5851 5851 5851 5851 5851 5852 5852 5852 5852 5852 5851 5851 5850 5849 5848 5847 5846 5845 5843 5842 5840 5839 5837 5835 5832 5830 5828 5826 5823 5821 5820 5819 5818 5817 5815 5813 5812 5811 5809 5809 5807 5806 5806 5805 5805 5804 5802 5801 5800 5798 5796 5795 5794
5843 5844 5844 5844 5844 5845 5845 5846 5846 5846 5847 5847 5847 5847 5847 5847 5847 5847 5847 5847 5847 5846 5845 5844 5844 5842 5841 5839 5838 5836 5835 5833 5831 5828 5826 5825 5823 5821 5818 5816 5815 5815 5814 5812 5810 5808 5807 5806 5805 5805 5803 5802 5802 5801 5799 5798 5797 5796 5794 5792 5791 5790 5790
5837 5838 5838 5839 5839 5840 5840 5841 5842 5842 5842 5842 5843 5843 5843 5843 5843 5843 5843 5843 5842 5841 5840 5839 5838 5837 5835 5834 5832 5831 5829 5827 5825 5822 5820 5819 5817 5816 5814 5812 5811 5810 5808 5807 5805 5804 5803 5802 5801 5800 5799 5798 5796 5795 5793 5792 5792 5791 5789 5788 5787 5786 5785
5832 5833 5833 5834 5834 5835 5836 5836 5837 5838 5838 5838 5838 5838 5838 5838 5838 5839 5839 5838 5838 5837 5835 5834 5833 5831 5830 5828 5827 5825 5823 5821 5819 5817 5815 5813 5812 5810 5809 5808 5806 5805 5803 5802 5800 5799 5798 5797 5795 5794 5793 5793 5791 5790 5789 5787 5786 5785 5785 5784 5783 5782 5781
5827 5827 5828 5828 5828 5829 5831 5832 5833 5833 5833 5833 5833 5834 5834 5834 5833 5833 5833 5833 5833 5832 5831 5829 5828 5826 5824 5822 5821 5819 5817 5815 5813 5812 5810 5809 5807 5805 5804 5803 5802 5800 5799 5798 5796 5794 5792 5791 5790 5790 5789 5789 5787 5786 5784 5782 5781 5781 5781 5780 5779 5778 5776
5821 5822 5823 5823 5823 5824 5826 5827 5828 5828 5828 5828 5829 5829 5828 5828 5828 5828 5828 5828 5828 5826 5825 5823 5822 5820 5818 5816 5815 5813 5811 5809 5808 5807 5806 5804 5802 5800 5798 5798 5797 5795 5794 5793 5791 5789 5788 5787 5786 5786 5786 5785 5784 5782 5780 5779 5778 5777 5776 5775 5774 5773 5772
5816 5817 5818 5818 5820 5821 5822 5823 5823 5824 5824 5823 5823 5823 5823 5823 5822 5823 5823 5823 5822 5820 5819 5817 5815 5814 5812 5810 5808 5807 5806 5804 5803 5802 5801 5799 5798 5796 5794 5793 5792 5791 5789 5788 5786 5784 5784 5783 5782 5782 5782 5781 5780 5778 5776 5774 5773 5772 5770 5769 5769 5768 5767
5812 5813 5814 5815 5816 5817 5817 5818 5819 5818 5818 5818 5817 5817 5817 5817 5817 5817 5817 5816 5815 5814 5812 5811 5809 5808 5806 5804 5802 5801 5800 5800 5799 5797 5796 5794 5793 5791 5789 5788 5787 5786 5784 5783 5781 5780 5779 5779 5779 5779 5778 5776 5775 5775 5772 5769 5767 5766 5765 5764 5763 5762 5762
5807 5808 5809 5809 5810 5811 5812 5813 5813 5813 5812 5812 5812 5812 5811 5811 5811 5811 5810 5809 5808 5807 5806 5804 5803 5801 5800 5798 5797 5796 5796 5795 5794 5792 5791 5789 5788 5786 5785 5783 5781 5780 5779 5778 5777 5776 5776 5775 5775 5774 5773 5772 5771 5771 5770 5768 5764 5762 5760 5759 5758 5756 5755
5801 5802 5803 5803 5805 5806 5806 5807 5807 5807 5807 5806 5806 5806 5806 5805 5805 5804 5804 5803 5802 5801 5799 5798 5797 5796 5795 5793 5792 5791 5791 5790 5789 5787 5786 5784 5783 5781 5780 5778 5776 5775 5774 5773 5772 5772 5771 5770 5770 5769 5768 5767 5766 5766 5766 5764 5761 5758 5756 5754 5752 5750 5748
5795 5796 5797 5798 5799 5800 5801 5801 5801 5801 5802 5802 5802 5801 5800 5799 5798 5797 5797 5796 5795 5794 5793 5792 5791 5790 5789 5788 5787 5786 5785 5784 5783 5782 5781 5779 5778 5776 5775 5773 5772 5770 5769 5768 5767 5766 5766 5765 5764 5764 5763 5762 5761 5760 5759 5758 5755 5753 5750 5748 5746 5744 5742
5788 5790 5791 5792 5793 5794 5795 5795 5796 5796 5796 5796 5795 5794 5793 5792 5792 5791 5791 5790 5789 5788 5787 5786 5786 5785 5784 5783 5782 5781 5780 5779 5778 5776 5775 5774 5773 5772 5770 5768 5767 5766 5764 5763 5762 5761 5760 5760 5759 5759 5758 5757 5755 5754 5753 5751 5749 5747 5745 5743 5741 5738 5736
5782 5783 5785 5786 5787 5788 5789 5790 5791 5791 5790 5789 5788 5787 5786 5786 5786 5785 5785 5784 5783 5782 5782 5781 5781 5780 5779 5778 5776 5775 5774 5773 5772 5771 5770 5769 5768 5767 5765 5763 5762 5761 5759 5758 5757 5756 5755 5754 5754 5753 5752 5751 5749 5748 5747 5745 5744 5742 5739 5737 5735 5732 5730
5777 5778 5779 5781 5782 5783 5784 5785 5785 5784 5784 5783 5783 5782 5781 5780 5780 5779 5779 5778 5777 5777 5777 5776 5776 5775 5774 5772 5771 5770 5769 5768 5767 5766 5765 5764 5763 5761 5760 5758 5756 5755 5754 5752 5752 5751 5750 5749 5748 5747 5746 5745 5744 5743 5742 5740 5738 5736 5734 5731 5729 5726 5724
5772 5773 5774 5776 5777 5777 5778 5779 5779 5779 5778 5778 5777 5776 5775 5774 5773 5773 5772 5772 5771 5771 5771 5770 5770 5769 5768 5767 5766 5765 5764 5763 5762 5761 5760 5758 5757 5756 5755 5753 5751 5749 5748 5746 5745 5745 5744 5743 5742 5742 5741 5739 5738 5737 5735 5733 5731 5729 5727 5725 5723 5720 5719
5767 5769 5770 5770 5771 5772 5772 5772 5773 5773 5772 5771 5771 5770 5769 5768 5767 5766 5766 5765 5765 5765 5765 5764 5764 5763 5762 5761 5761 5760 5759 5758 5756 5755 5754 5753 5752 5750 5749 5747 5746 5744 5743 5741 5740 5739 5738 5737 5736 5735 5735 5733 5732 5731 5729 5727 5725 5723 5721 5719 5717 5715 5714
5763 5764 5765 5765 5766 5766 5766 5766 5766 5766 5766 5765 5764 5764 5763 5762 5761 5761 5760 5759 5759 5758 5758 5758 5758 5757 5757 5756 5755 5754 5753 5752 5751 5750 5749 5748 5746 5745 5743 5742 5740 5739 5738 5736 5735 5733 5732 5731 5730 5729 5729 5727 5726 5724 5723 5721 5720 5718 5715 5713 5711 5710 5709
Wind_Speed
11 8 6 7 8 10 11 10 9 8 8 9 12 15 16 17 17 17 18 18 18 18 18 18 17 16 15 15 15 14 14 14 15 17 19 19 20 21 23 24 25 27 28 27 27 28 28 28 28 27 27 26 25 25 25 25 23 23 22 22 22 22 22
10 7 7 8 9 10 10 8 8 9 10 10 11 13 15 17 18 19 20 21 21 21 20 19 18 16 15 15 14 13 13 14 16 18 20 21 22 23 24 25 26 27 27 28 29 29 30 31 31 30 28 27 27 26 27 27 26 25 24 24 23 23 23
7 7 7 9 9 10 10 9 9 10 11 12 12 13 14 15 17 19 20 21 22 22 21 20 18 17 16 15 13 13 13 15 17 19 21 23 24 25 26 26 26 26 26 28 29 30 32 33 33 32 32 31 30 29 28 28 28 27 26 26 26 25 25
5 5 7 10 11 12 12 10 10 11 12 13 14 14 14 14 14 15 17 18 20 20 19 19 18 17 16 14 13 13 15 16 18 20 21 23 24 26 27 28 28 27 27 28 29 31 33 35 35 35 36 36 36 34 31 30 30 29 28 27 28 27 27
7 8 9 10 11 13 12 11 11 12 13 14 15 15 14 12 11 11 13 15 16 16 16 16 15 15 14 13 13 14 16 18 19 20 22 23 24 26 28 30 30 30 30 30 30 32 34 37 38 38 39 40 39 37 35 34 32 30 29 28 29 30 30
10 11 11 11 11 12 12 12 13 14 15 16 16 16 14 12 10 9 9 11 12 13 13 13 13 13 13 13 14 15 16 18 19 22 24 25 26 27 29 31 32 31 31 31 32 33 35 38 40 40 40 40 40 39 38 36 35 33 31 30 31 31 31
13 13 12 12 13 13 14 14 15 17 18 17 17 16 14 12 10 9 8 9 11 12 12 13 13 13 13 13 14 15 16 18 21 23 25 27 28 29 30 32 33 33 33 33 34 34 35 37 39 41 39 39 41 41 39 37 36 34 32 32 32 32 32
15 15 15 15 16 17 17 17 17 19 19 17 15 14 13 11 10 9 9 9 10 11 12 13 13 13 12 13 15 15 17 19 21 24 27 29 30 31 31 32 33 34 34 35 36 36 36 37 40 41 40 40 43 42 38 35 34 32 31 31 33 33 33
18 19 19 19 20 21 20 20 19 20 20 16 13 12 11 10 10 10 9 9 9 10 11 12 12 12 12 14 15 16 18 19 22 25 28 29 32 33 32 31 31 33 34 36 38 38 39 39 39 38 39 42 44 39 33 30 30 29 29 31 32 32 32
21 23 21 20 23 24 23 21 21 21 20 16 13 11 10 8 8 8 9 9 9 11 11 11 12 12 14 16 17 18 19 21 24 27 28 29 31 33 34 32 31 33 34 36 38 39 39 37 36 37 37 41 43 36 26 25 27 28 30 32 33 32 30
23 24 21 19 22 24 23 22 22 21 20 17 15 13 9 8 8 9 9 9 10 11 12 12 13 15 17 19 20 20 21 24 26 28 28 30 31 33 35 34 33 34 34 35 38 38 34 30 32 34 34 36 36 27 20 22 25 28 31 33 33 32 30
24 25 21 20 22 22 23 23 23 22 20 17 16 14 11 10 10 10 10 10 11 12 13 13 15 16 18 20 21 22 23 25 27 28 29 30 31 34 35 34 34 34 35 35 37 37 30 24 26 27 27 29 25 17 18 22 24 28 32 33 34 34 33
26 25 22 22 22 22 23 24 24 22 19 17 15 14 13 12 12 11 11 11 12 12 13 14 15 17 18 20 21 22 23 25 28 30 31 31 33 35 36 37 35 33 35 35 36 38 31 21 23 23 20 21 19 18 21 24 25 29 32 33 35 36 38
26 24 22 23 23 23 24 25 24 22 19 17 16 14 13 12 12 12 12 12 12 12 13 14 16 17 19 20 21 22 24 27 30 32 33 35 36 35 36 39 37 35 37 36 36 41 36 25 23 24 19 19 20 22 26 26 27 29 30 32 36 38 39
24 23 23 23 22 22 23 24 24 22 19 18 16 15 14 13 12 13 13 13 13 13 14 16 17 18 19 20 20 23 26 28 32 33 35 38 39 38 38 39 37 37 38 37 40 43 34 26 24 24 20 21 23 26 29 30 31 30 29 31 36 37 36
23 24 23 20 19 19 20 21 22 20 18 16 16 16 15 14 14 13 14 14 15 17 18 19 20 20 20 20 21 24 27 29 32 34 37 39 39 41 42 40 39 39 38 40 42 34 22 20 25 24 21 22 25 28 31 33 33 33 31 32 36 36 33
23 23 20 17 16 18 20 21 21 19 17 17 16 16 16 16 15 15 16 17 19 21 22 23 24 24 24 23 24 26 27 30 33 35 38 39 39 42 43 43 42 38 37 43 37 22 18 24 25 23 23 24 26 29 32 33 34 33 32 34 36 34 32
21 21 19 17 18 19 21 23 22 20 19 19 18 17 18 19 18 18 20 21 22 24 26 27 27 28 28 28 28 29 30 32 34 35 38 40 40 41 43 46 45 38 40 43 31 19 25 29 24 24 25 24 26 29 31 33 34 33 33 35 35 33 31
22 21 20 20 21 22 24 24 24 22 22 22 21 21 22 23 22 23 24 25 26 27 28 29 30 31 32 32 32 34 35 36 37 38 40 40 41 41 42 45 46 43 42 35 23 20 31 29 25 27 26 24 26 28 29 31 32 32 33 33 33 32 32
26 24 24 25 27 27 27 27 27 26 26 26 25 25 26 26 26 27 28 28 29 29 30 31 32 34 34 34 35 38 40 41 42 42 42 42 42 41 41 43 44 43 37 27 21 26 31 27 26 28 25 25 26 26 27 28 29 30 30 30 31 32 33
27 26 27 30 32 31 30 29 29 29 29 29 29 29 29 29 29 30 31 31 30 31 32 32 33 35 36 36 39 43 44 45 45 44 43 43 42 40 41 42 43 40 35 31 31 33 30 27 28 27 26 26 26 26 26 25 26 28 28 29 31 33 35
27 28 31 32 33 33 32 31 30 31 31 31 31 31 31 31 32 33 33 32 32 33 34 34 34 36 38 39 43 46 46 46 47 46 44 42 42 40 40 42 42 39 36 35 35 33 30 29 28 27 27 28 27 26 25 24 26 27 27 30 33 33 34
29 32 34 34 35 35 35 34 34 33 33 32 32 32 33 33 34 34 34 34 34 34 35 36 37 39 41 43 45 47 49 49 48 46 43 41 41 40 41 43 42 38 36 36 35 34 33 31 28 27 28 28 28 26 25 25 26 27 29 33 33 33 34
32 35 37 37 38 39 38 37 35 34 34 33 33 34 35 36 36 36 35 35 35 36 37 38 41 42 44 46 48 50 52 50 47 43 41 40 40 40 41 43 41 38 38 37 36 36 35 31 28 25 25 25 26 25 24 25 27 28 31 34 35 36 37
35 38 38 39 40 40 39 37 35 34 34 35 35 36 37 38 38 36 35 35 36 37 38 40 43 45 47 48 50 51 51 48 43 41 40 40 40 41 42 42 40 39 39 38 38 38 35 30 26 23 21 21 22 23 24 26 28 30 33 35 37 38 38
38 39 39 40 40 39 38 36 34 34 35 37 37 38 38 39 39 38 37 37 37 38 39 41 45 47 49 51 51 50 48 44 41 40 39 39 40 41 42 41 40 39 39 38 38 38 35 30 26 23 20 19 22 24 26 28 30 32 34 36 37 37 37
39 39 40 40 40 38 37 35 35 36 37 39 39 38 39 40 40 41 42 40 38 38 40 43 46 49 52 53 51 48 45 42 40 39 39 39 39 41 41 41 39 39 38 38 38 37 34 30 25 21 20 21 24 26 28 31 33 34 35 36 36 37 39
40 40 41 42 41 39 36 35 36 37 38 39 39 39 40 42 43 44 44 41 39 40 43 46 49 51 54 52 47 43 41 40 39 39 38 38 38 39 39 39 38 38 37 37 37 35 31 26 23 22 23 26 28 30 33 34 33 34 36 37 37 39 41
41 41 41 41 39 37 35 35 37 38 40 42 43 43 43 43 43 44 44 42 42 44 47 50 52 53 51 47 42 40 40 40 39 38 37 36 36 36 37 37 37 37 37 36 33 28 24 23 24 25 27 30 32 34 36 35 33 34 37 38 39 42 44
43 42 42 42 40 39 39 40 42 44 46 46 46 46 45 43 42 44 44 44 45 48 51 53 52 50 45 41 39 39 39 39 38 37 36 35 35 35 36 37 37 37 37 35 31 26 25 28 29 27 28 31 33 34 34 34 35 38 40 41 43 46 47
43 43 43 43 44 45 45 45 46 47 47 46 46 47 46 44 43 44 45 46 49 51 52 51 48 45 43 40 38 38 39 39 39 38 36 36 36 36 37 37 38 37 37 35 34 32 33 35 33 30 29 31 33 34 34 36 39 43 46 47 48 48 46
46 45 44 42 43 45 45 45 44 44 44 44 46 46 46 46 46 47 48 50 51 50 48 47 46 45 43 40 38 39 40 40 39 38 37 37 37 37 37 37 38 38 38 37 37 38 38 38 36 32 31 33 35 37 39 41 44 47 48 48 47 46 46
41 39 38 38 40 41 42 42 43 42 42 44 45 47 47 48 49 50 50 49 47 45 44 44 43 43 42 40 40 40 41 40 39 38 38 38 38 38 38 38 39 39 39 39 40 40 41 40 36 33 33 37 40 41 43 44 46 46 47 46 46 46 46
35 36 37 38 40 40 41 41 41 42 43 45 47 48 50 50 50 50 47 44 42 42 42 41 41 41 42 42 41 41 40 39 39 38 39 39 39 38 39 39 40 40 41 41 41 41 40 38 36 35 37 40 42 44 44 44 44 45 45 45 45 45 45
37 39 40 39 38 38 38 39 40 42 43 43 44 46 47 48 47 45 42 40 40 40 40 41 41 42 42 42 41 41 40 40 40 40 40 40 40 40 40 41 41 42 42 43 43 42 40 38 37 38 39 41 42 43 43 43 43 43 43 44 43 43 42
40 41 41 40 40 40 41 41 41 40 39 38 38 38 39 40 39 39 38 39 40 40 40 41 41 41 40 40 40 41 41 41 41 41 41 41 41 41 42 42 43 44 44 43 43 42 41 40 39 38 39 40 40 41 41 41 41 41 41 41 40 39 39
42 43 42 42 41 40 40 40 39 37 36 36 35 35 35 35 35 36 37 38 38 38 39 39 39 40 41 41 42 42 42 43 43 42 42 42 43 43 44 44 45 46 45 44 43 42 41 40 38 38 38 39 39 39 39 39 39 39 39 38 38 38 39
43 41 38 36 34 34 34 34 33 32 32 33 34 34 35 35 35 36 36 36 36 36 38 39 40 42 43 43 44 44 44 44 44 44 44 44 44 45 46 46 47 46 45 45 44 43 41 40 39 38 38 38 38 38 38 38 39 39 39 38 39 40 41
Wind_Direction
224 218 232 238 248 262 268 271 274 278 273 257 250 250 250 252 252 253 256 260 264 267 269 272 276 279 276 271 273 281 290 294 298 302 303 305 308 310 311 311 311 311 310 309 308 308 309 308 307 306 304 302 300 300 299 297 295 294 293 294 294 294 295
238 227 232 239 253 262 262 266 277 283 282 275 267 261 256 256 257 257 260 262 264 266 268 272 276 275 271 269 274 284 291 295 301 305 307 311 313 312 311 310 309 308 308 307 306 306 307 307 306 304 302 301 300 299 299 298 296 295 294 293 293 294 296
246 232 233 240 251 260 262 269 280 283 286 288 282 274 268 263 262 262 263 263 264 264 266 269 271 270 268 270 278 285 291 297 303 307 311 315 315 312 310 309 309 309 307 306 304 303 304 304 304 302 300 299 299 298 297 297 297 296 295 293 293 294 294
285 268 246 243 252 264 268 272 280 284 290 292 289 284 278 271 270 268 264 262 262 260 260 262 264 267 269 274 281 286 292 300 305 308 312 315 315 313 312 311 311 311 309 307 305 304 303 302 301 299 297 296 297 296 295 294 295 297 296 294 293 293 293
297 294 279 270 267 265 267 272 283 290 292 293 291 286 283 280 277 269 258 254 254 255 256 258 261 265 269 275 282 289 296 302 307 310 311 311 313 314 314 313 313 312 311 309 306 303 302 301 300 297 294 293 294 295 295 292 292 293 294 293 292 292 292
291 291 280 271 265 260 263 272 285 293 293 292 290 288 287 286 279 269 256 247 247 250 252 254 257 260 265 274 283 291 298 304 308 310 309 308 311 313 313 312 311 311 309 307 304 302 300 298 298 298 294 290 291 294 294 293 292 289 287 289 290 291 292
279 279 267 257 257 260 262 271 282 289 291 289 286 288 289 280 267 257 248 241 241 243 245 248 251 257 267 277 285 293 300 304 307 308 308 308 310 312 312 310 310 309 307 306 305 304 301 298 299 300 297 292 290 291 291 294 294 288 282 284 288 289 291
266 264 261 252 252 257 261 268 277 283 288 287 283 284 281 267 250 240 236 235 237 241 245 249 255 264 273 280 287 296 303 305 307 310 310 310 311 312 312 310 309 309 308 308 308 306 305 304 303 300 298 296 293 290 290 292 292 286 281 283 286 287 289
262 260 260 251 246 251 257 264 272 280 286 286 278 272 265 252 239 233 236 241 245 251 255 260 268 275 282 287 293 301 305 307 311 313 313 312 312 311 309 308 308 307 307 308 307 307 308 308 305 303 301 300 298 295 292 290 285 282 282 283 284 284 286
257 259 260 250 242 246 253 260 269 278 284 284 278 270 260 253 248 246 250 254 260 266 269 277 283 287 290 294 300 304 305 307 311 314 313 313 311 309 306 305 305 305 305 305 305 307 308 307 306 306 304 302 303 301 291 283 283 283 283 281 279 279 283
252 255 256 248 243 247 255 260 266 273 278 279 279 276 271 271 271 268 266 267 271 275 280 287 291 294 296 298 301 303 303 305 310 313 314 313 311 307 304 302 302 303 305 306 308 308 308 308 308 304 302 304 306 298 280 278 287 287 283 280 275 276 282
247 251 251 248 247 251 255 257 262 269 271 272 274 276 276 276 277 276 271 271 274 278 286 294 298 301 302 301 303 303 303 307 311 312 313 311 307 303 301 301 304 306 307 309 308 305 302 310 317 310 305 309 304 282 269 279 287 288 283 279 275 273 279
242 244 245 246 248 250 251 255 260 264 264 265 267 271 273 275 277 277 274 274 278 285 293 299 305 306 305 304 304 305 308 311 312 313 313 309 304 302 302 304 306 308 307 304 303 300 293 299 323 322 308 302 290 268 271 281 286 288 286 283 278 273 276
240 239 240 243 243 244 248 254 259 260 259 258 260 263 268 274 278 278 278 279 284 292 298 304 311 312 310 307 305 307 312 314 315 315 313 310 307 305 305 304 304 306 305 300 300 302 290 281 309 322 303 284 277 270 276 283 288 290 289 288 284 277 279
234 235 238 241 242 242 247 254 258 257 254 253 256 258 261 270 277 280 282 282 285 294 301 309 314 314 314 311 306 307 311 315 318 318 316 314 312 309 306 302 301 305 306 302 301 301 292 278 297 312 295 279 277 276 280 286 288 289 290 290 286 283 284
230 234 238 240 244 247 251 256 260 260 257 257 262 262 263 270 276 281 286 285 285 291 297 304 307 307 308 308 306 306 308 313 316 317 318 317 314 311 307 305 304 304 307 307 301 297 298 296 301 304 293 282 280 280 284 287 286 286 288 287 286 285 285
233 235 237 242 250 254 257 261 266 268 266 265 268 271 274 277 279 285 290 288 288 291 294 298 301 301 302 302 302 304 307 312 316 318 318 316 313 310 307 307 306 299 299 303 297 293 316 317 307 302 294 284 281 284 287 286 283 284 285 284 285 285 284
242 240 243 250 255 257 260 264 269 273 271 270 272 276 279 282 286 292 296 296 298 301 301 300 299 299 300 302 303 304 307 312 316 319 319 316 312 308 306 308 308 302 302 301 290 293 325 323 309 302 296 284 282 285 287 285 282 283 285 284 285 285 284
245 245 250 256 257 257 260 265 270 273 272 272 273 275 277 282 289 295 296 299 304 307 306 303 300 299 299 301 304 307 310 312 314 316 318 315 311 305 303 307 310 311 312 304 285 303 327 322 307 302 296 285 283 284 286 285 283 282 283 284 285 284 282
245 248 254 258 258 259 263 268 272 273 273 274 274 274 277 283 289 292 294 298 302 305 306 304 302 301 300 299 304 309 312 313 313 314 314 313 310 305 302 304 308 311 312 305 297 314 323 315 303 300 293 285 282 283 286 285 281 281 283 283 283 282 280
246 249 252 256 259 262 265 267 269 269 271 274 275 276 279 283 287 289 292 296 299 301 303 303 303 303 301 300 302 307 310 311 311 311 310 309 308 304 301 303 309 312 311 307 307 314 316 309 302 298 290 283 281 285 288 282 279 281 280 279 279 279 279
245 246 247 249 253 256 257 258 260 264 269 273 274 275 277 279 282 286 290 294 296 298 300 301 302 302 302 301 302 305 306 307 308 308 306 305 305 302 299 303 309 311 309 307 308 312 313 310 304 298 291 284 283 288 287 278 276 277 275 275 276 277 280
241 241 240 240 243 246 250 254 259 265 270 270 269 270 272 274 278 284 289 292 294 296 297 299 300 301 301 301 302 303 304 304 305 305 303 302 302 299 298 303 307 309 308 307 308 312 314 312 308 301 291 285 286 289 283 276 276 274 272 274 274 276 282
236 237 238 241 246 251 255 258 262 265 265 264 265 267 269 272 277 283 288 290 292 294 296 298 300 300 300 300 302 303 304 303 302 302 301 300 300 298 298 302 306 307 306 306 308 312 314 312 308 299 288 285 290 290 284 280 278 275 274 274 273 279 287
237 236 239 244 249 253 256 258 260 262 261 261 263 265 269 274 279 283 284 285 288 292 294 297 299 299 300 301 303 304 303 301 300 299 298 298 298 297 298 301 304 304 304 306 310 312 312 311 307 297 290 293 299 295 286 280 277 275 275 274 275 282 292
239 239 240 244 247 250 253 255 256 257 258 260 264 268 273 277 279 281 281 284 288 290 293 296 298 299 300 301 302 302 301 299 297 296 295 296 296 297 298 300 302 302 303 307 311 313 314 313 307 297 293 301 306 297 286 280 280 280 277 275 277 287 297
240 240 240 242 244 247 249 250 253 256 259 264 267 271 274 276 278 280 283 285 288 291 294 298 299 300 301 301 299 298 297 296 294 293 293 294 295 296 297 299 300 301 304 309 312 313 313 312 305 294 289 297 301 296 291 289 287 285 281 279 283 292 300
244 243 243 245 247 250 250 252 255 259 262 265 266 268 271 274 278 283 285 285 288 292 296 298 300 301 301 299 297 295 294 293 291 291 292 293 294 295 296 297 298 300 304 310 313 311 308 308 306 295 285 285 288 292 295 294 288 285 286 288 293 297 299
248 247 248 248 248 248 249 251 255 257 260 263 266 267 269 272 277 282 284 285 289 294 296 298 299 299 299 297 295 294 293 292 290 291 292 293 294 294 294 296 297 300 304 309 311 307 301 303 305 295 281 278 283 291 296 293 287 288 292 294 295 296 295
246 245 245 244 243 244 248 253 257 259 262 266 269 269 269 271 276 280 282 286 291 294 296 297 298 297 296 294 292 292 292 290 290 290 291 291 292 293 293 295 296 299 304 307 306 301 296 300 302 294 282 279 283 290 294 290 286 288 292 293 292 292 293
243 243 243 244 248 254 258 261 263 264 265 268 270 272 274 276 279 280 283 288 293 295 295 295 294 293 292 290 289 290 290 289 289 289 289 290 290 291 292 293 295 298 302 302 301 298 297 300 301 295 286 283 283 287 288 285 283 286 291 293 293 293 293
246 247 248 252 259 263 263 263 264 263 264 267 271 274 277 278 279 282 286 290 292 292 291 291 290 289 288 287 288 289 288 288 288 287 287 287 288 289 290 292 295 297 299 299 298 297 298 299 299 295 288 285 284 285 286 285 286 289 292 293 294 293 292
250 250 251 254 258 260 260 259 260 262 264 269 273 276 278 279 281 284 286 288 288 288 287 287 286 284 284 286 288 287 287 286 285 284 284 284 286 288 290 292 294 295 296 297 297 296 297 298 296 290 284 283 284 286 288 289 290 291 292 293 293 292 291
245 245 244 244 247 251 253 256 261 267 271 275 277 278 279 280 282 283 283 283 283 283 283 283 283 283 284 286 287 286 285 284 283 282 283 284 286 288 290 292 293 294 295 295 296 295 295 294 289 284 282 283 285 287 288 289 289 289 290 290 289 289 290
245 246 246 244 245 249 255 261 268 273 275 277 279 279 279 279 279 280 279 279 280 280 280 281 283 284 284 284 284 284 283 282 282 282 283 284 286 288 290 291 293 294 295 295 295 295 294 291 287 284 283 284 284 286 287 287 287 287 287 287 288 288 289
250 251 250 250 252 255 260 266 270 271 273 275 277 278 278 277 276 276 276 277 278 279 280 282 283 283 283 283 282 281 281 281 281 282 283 285 287 288 289 291 292 294 295 296 296 296 294 291 289 287 285 285 285 286 286 286 285 286 286 288 289 288 288
253 254 254 255 258 261 264 266 268 269 272 274 276 277 277 276 275 274 274 276 278 280 281 281 282 282 282 281 280 280 280 281 282 283 284 285 287 288 290 291 292 293 294 295 295 294 293 291 289 288 287 287 287 287 287 286 286 287 289 291 290 289 289
254 255 256 257 259 262 263 263 265 267 270 272 274 275 276 276 275 274 273 274 275 276 277 279 280 281 280 280 280 280 280 281 282 283 283 284 286 288 290 291 292 292 293 293 293 293 292 291 290 289 289 289 288 288 288 289 290 292 293 292 290 289 289